Year,Month,Day,Hour,Minute,Value (Times are PST for temperature in C)
2021,06,27,00,00,25.00
2021,06,27,00,01,25.00
2021,06,27,00,02,25.00
2021,06,27,00,03,25.00
2021,06,27,00,04,24.90
2021,06,27,00,05,24.90
2021,06,27,00,06,24.90
2021,06,27,00,07,24.90
2021,06,27,00,08,24.90
2021,06,27,00,09,24.80
2021,06,27,00,10,24.80
2021,06,27,00,11,24.80
2021,06,27,00,12,24.70
2021,06,27,00,13,24.70
2021,06,27,00,14,24.70
2021,06,27,00,15,24.70
2021,06,27,00,16,24.60
2021,06,27,00,17,24.60
2021,06,27,00,18,24.60
2021,06,27,00,19,24.60
2021,06,27,00,20,24.50
2021,06,27,00,21,24.50
2021,06,27,00,22,24.40
2021,06,27,00,23,24.40
2021,06,27,00,24,24.30
2021,06,27,00,25,24.30
2021,06,27,00,26,24.30
2021,06,27,00,27,24.30
2021,06,27,00,28,24.30
2021,06,27,00,29,24.20
2021,06,27,00,30,24.30
2021,06,27,00,31,24.30
2021,06,27,00,32,24.30
2021,06,27,00,33,24.30
2021,06,27,00,34,24.30
2021,06,27,00,35,24.30
2021,06,27,00,36,24.30
2021,06,27,00,37,24.30
2021,06,27,00,38,24.30
2021,06,27,00,39,24.30
2021,06,27,00,40,24.30
2021,06,27,00,41,24.30
2021,06,27,00,42,24.30
2021,06,27,00,43,24.30
2021,06,27,00,44,24.30
2021,06,27,00,45,24.30
2021,06,27,00,46,24.30
2021,06,27,00,47,24.30
2021,06,27,00,48,24.30
2021,06,27,00,49,24.30
2021,06,27,00,50,24.30
2021,06,27,00,51,24.30
2021,06,27,00,52,24.30
2021,06,27,00,53,24.30
2021,06,27,00,54,24.30
2021,06,27,00,55,24.30
2021,06,27,00,56,24.30
2021,06,27,00,57,24.30
2021,06,27,00,58,24.20
2021,06,27,00,59,24.20
2021,06,27,01,00,24.20
2021,06,27,01,01,24.20
2021,06,27,01,02,24.20
2021,06,27,01,03,24.20
2021,06,27,01,04,24.10
2021,06,27,01,05,24.10
2021,06,27,01,06,24.00
2021,06,27,01,07,24.00
2021,06,27,01,08,24.00
2021,06,27,01,09,24.00
2021,06,27,01,10,24.00
2021,06,27,01,11,24.10
2021,06,27,01,12,24.10
2021,06,27,01,13,24.10
2021,06,27,01,14,24.10
2021,06,27,01,15,24.10
2021,06,27,01,16,24.10
2021,06,27,01,17,24.10
2021,06,27,01,18,24.10
2021,06,27,01,19,24.10
2021,06,27,01,20,24.10
2021,06,27,01,21,24.10
2021,06,27,01,22,24.10
2021,06,27,01,23,24.10
2021,06,27,01,24,24.10
2021,06,27,01,25,24.10
2021,06,27,01,26,24.10
2021,06,27,01,27,24.10
2021,06,27,01,28,24.10
2021,06,27,01,29,24.10
2021,06,27,01,30,24.10
2021,06,27,01,31,24.10
2021,06,27,01,32,24.10
2021,06,27,01,33,24.10
2021,06,27,01,34,24.10
2021,06,27,01,35,24.00
2021,06,27,01,36,24.00
2021,06,27,01,37,24.00
2021,06,27,01,38,24.00
2021,06,27,01,39,23.90
2021,06,27,01,40,23.90
2021,06,27,01,41,23.90
2021,06,27,01,42,23.80
2021,06,27,01,43,23.80
2021,06,27,01,44,23.80
2021,06,27,01,45,23.80
2021,06,27,01,46,23.70
2021,06,27,01,47,23.70
2021,06,27,01,48,23.70
2021,06,27,01,49,23.70
2021,06,27,01,50,23.60
2021,06,27,01,51,23.60
2021,06,27,01,52,23.60
2021,06,27,01,53,23.60
2021,06,27,01,54,23.60
2021,06,27,01,55,23.60
2021,06,27,01,56,23.60
2021,06,27,01,57,23.50
2021,06,27,01,58,23.50
2021,06,27,01,59,23.50
2021,06,27,02,00,23.50
2021,06,27,02,01,23.40
2021,06,27,02,02,23.40
2021,06,27,02,03,23.40
2021,06,27,02,04,23.40
2021,06,27,02,05,23.40
2021,06,27,02,06,23.40
2021,06,27,02,07,23.40
2021,06,27,02,08,23.40
2021,06,27,02,09,23.40
2021,06,27,02,10,23.40
2021,06,27,02,11,23.40
2021,06,27,02,12,23.40
2021,06,27,02,13,23.40
2021,06,27,02,14,23.40
2021,06,27,02,15,23.40
2021,06,27,02,16,23.30
2021,06,27,02,17,23.30
2021,06,27,02,18,23.30
2021,06,27,02,19,23.30
2021,06,27,02,20,23.30
2021,06,27,02,21,23.30
2021,06,27,02,22,23.20
2021,06,27,02,23,23.20
2021,06,27,02,24,23.20
2021,06,27,02,25,23.20
2021,06,27,02,26,23.20
2021,06,27,02,27,23.20
2021,06,27,02,28,23.20
2021,06,27,02,29,23.20
2021,06,27,02,30,23.10
2021,06,27,02,31,23.10
2021,06,27,02,32,23.10
2021,06,27,02,33,23.10
2021,06,27,02,34,23.10
2021,06,27,02,35,23.10
2021,06,27,02,36,23.10
2021,06,27,02,37,23.10
2021,06,27,02,38,23.10
2021,06,27,02,39,23.10
2021,06,27,02,40,23.10
2021,06,27,02,41,23.10
2021,06,27,02,42,23.10
2021,06,27,02,43,23.10
2021,06,27,02,44,23.10
2021,06,27,02,45,23.10
2021,06,27,02,46,23.10
2021,06,27,02,47,23.10
2021,06,27,02,48,23.00
2021,06,27,02,49,23.00
2021,06,27,02,50,23.00
2021,06,27,02,51,23.00
2021,06,27,02,52,22.90
2021,06,27,02,53,22.90
2021,06,27,02,54,22.90
2021,06,27,02,55,22.90
2021,06,27,02,56,22.80
2021,06,27,02,57,22.80
2021,06,27,02,58,22.80
2021,06,27,02,59,22.80
2021,06,27,03,00,22.70
2021,06,27,03,01,22.70
2021,06,27,03,02,22.70
2021,06,27,03,03,22.70
2021,06,27,03,04,22.60
2021,06,27,03,05,22.60
2021,06,27,03,06,22.60
2021,06,27,03,07,22.60
2021,06,27,03,08,22.60
2021,06,27,03,09,22.60
2021,06,27,03,10,22.60
2021,06,27,03,11,22.60
2021,06,27,03,12,22.60
2021,06,27,03,13,22.60
2021,06,27,03,14,22.60
2021,06,27,03,15,22.60
2021,06,27,03,16,22.60
2021,06,27,03,17,22.70
2021,06,27,03,18,22.70
2021,06,27,03,19,22.70
2021,06,27,03,20,22.70
2021,06,27,03,21,22.70
2021,06,27,03,22,22.70
2021,06,27,03,23,22.60
2021,06,27,03,24,22.60
2021,06,27,03,25,22.70
2021,06,27,03,26,22.70
2021,06,27,03,27,22.70
2021,06,27,03,28,22.70
2021,06,27,03,29,22.70
2021,06,27,03,30,22.60
2021,06,27,03,31,22.60
2021,06,27,03,32,22.60
2021,06,27,03,33,22.50
2021,06,27,03,34,22.50
2021,06,27,03,35,22.50
2021,06,27,03,36,22.50
2021,06,27,03,37,22.50
2021,06,27,03,38,22.50
2021,06,27,03,39,22.40
2021,06,27,03,40,22.40
2021,06,27,03,41,22.40
2021,06,27,03,42,22.40
2021,06,27,03,43,22.40
2021,06,27,03,44,22.40
2021,06,27,03,45,22.40
2021,06,27,03,46,22.40
2021,06,27,03,47,22.40
2021,06,27,03,48,22.40
2021,06,27,03,49,22.40
2021,06,27,03,50,22.40
2021,06,27,03,51,22.40
2021,06,27,03,52,22.40
2021,06,27,03,53,22.40
2021,06,27,03,54,22.30
2021,06,27,03,55,22.30
2021,06,27,03,56,22.40
2021,06,27,03,57,22.40
2021,06,27,03,58,22.40
2021,06,27,03,59,22.40
2021,06,27,04,00,22.30
2021,06,27,04,01,22.40
2021,06,27,04,02,22.40
2021,06,27,04,03,22.40
2021,06,27,04,04,22.30
2021,06,27,04,05,22.30
2021,06,27,04,06,22.30
2021,06,27,04,07,22.30
2021,06,27,04,08,22.30
2021,06,27,04,09,22.30
2021,06,27,04,10,22.30
2021,06,27,04,11,22.30
2021,06,27,04,12,22.20
2021,06,27,04,13,22.20
2021,06,27,04,14,22.20
2021,06,27,04,15,22.20
2021,06,27,04,16,22.20
2021,06,27,04,17,22.30
2021,06,27,04,18,22.30
2021,06,27,04,19,22.30
2021,06,27,04,20,22.30
2021,06,27,04,21,22.30
2021,06,27,04,22,22.30
2021,06,27,04,23,22.20
2021,06,27,04,24,22.20
2021,06,27,04,25,22.20
2021,06,27,04,26,22.20
2021,06,27,04,27,22.20
2021,06,27,04,28,22.20
2021,06,27,04,29,22.20
2021,06,27,04,30,22.20
2021,06,27,04,31,22.20
2021,06,27,04,32,22.20
2021,06,27,04,33,22.20
2021,06,27,04,34,22.20
2021,06,27,04,35,22.20
2021,06,27,04,36,22.20
2021,06,27,04,37,22.20
2021,06,27,04,38,22.20
2021,06,27,04,39,22.20
2021,06,27,04,40,22.20
2021,06,27,04,41,22.20
2021,06,27,04,42,22.10
2021,06,27,04,43,22.10
2021,06,27,04,44,22.10
2021,06,27,04,45,22.10
2021,06,27,04,46,22.10
2021,06,27,04,47,22.10
2021,06,27,04,48,22.10
2021,06,27,04,49,22.10
2021,06,27,04,50,22.10
2021,06,27,04,51,22.10
2021,06,27,04,52,22.10
2021,06,27,04,53,22.10
2021,06,27,04,54,22.10
2021,06,27,04,55,22.10
2021,06,27,04,56,22.10
2021,06,27,04,57,22.00
2021,06,27,04,58,22.00
2021,06,27,04,59,22.00
2021,06,27,05,00,22.00
2021,06,27,05,01,22.00
2021,06,27,05,02,22.00
2021,06,27,05,03,22.00
2021,06,27,05,04,22.00
2021,06,27,05,05,22.00
2021,06,27,05,06,22.00
2021,06,27,05,07,21.90
2021,06,27,05,08,21.90
2021,06,27,05,09,21.90
2021,06,27,05,10,21.90
2021,06,27,05,11,21.90
2021,06,27,05,12,21.80
2021,06,27,05,13,21.80
2021,06,27,05,14,21.80
2021,06,27,05,15,21.80
2021,06,27,05,16,21.80
2021,06,27,05,17,21.80
2021,06,27,05,18,21.80
2021,06,27,05,19,21.80
2021,06,27,05,20,21.80
2021,06,27,05,21,21.80
2021,06,27,05,22,21.70
2021,06,27,05,23,21.70
2021,06,27,05,24,21.70
2021,06,27,05,25,21.70
2021,06,27,05,26,21.70
2021,06,27,05,27,21.70
2021,06,27,05,28,21.70
2021,06,27,05,29,21.60
2021,06,27,05,30,21.60
2021,06,27,05,31,21.60
2021,06,27,05,32,21.60
2021,06,27,05,33,21.60
2021,06,27,05,34,21.60
2021,06,27,05,35,21.60
2021,06,27,05,36,21.50
2021,06,27,05,37,21.60
2021,06,27,05,38,21.50
2021,06,27,05,39,21.60
2021,06,27,05,40,21.60
2021,06,27,05,41,21.60
2021,06,27,05,42,21.60
2021,06,27,05,43,21.60
2021,06,27,05,44,21.50
2021,06,27,05,45,21.50
2021,06,27,05,46,21.50
2021,06,27,05,47,21.50
2021,06,27,05,48,21.50
2021,06,27,05,49,21.50
2021,06,27,05,50,21.50
2021,06,27,05,51,21.50
2021,06,27,05,52,21.50
2021,06,27,05,53,21.50
2021,06,27,05,54,21.50
2021,06,27,05,55,21.50
2021,06,27,05,56,21.50
2021,06,27,05,57,21.50
2021,06,27,05,58,21.50
2021,06,27,05,59,21.50
2021,06,27,06,00,21.50
2021,06,27,06,01,21.50
2021,06,27,06,02,21.50
2021,06,27,06,03,21.50
2021,06,27,06,04,21.50
2021,06,27,06,05,21.50
2021,06,27,06,06,21.50
2021,06,27,06,07,21.50
2021,06,27,06,08,21.50
2021,06,27,06,09,21.50
2021,06,27,06,10,21.60
2021,06,27,06,11,21.60
2021,06,27,06,12,21.60
2021,06,27,06,13,21.60
2021,06,27,06,14,21.60
2021,06,27,06,15,21.60
2021,06,27,06,16,21.70
2021,06,27,06,17,21.70
2021,06,27,06,18,21.70
2021,06,27,06,19,21.70
2021,06,27,06,20,21.70
2021,06,27,06,21,21.70
2021,06,27,06,22,21.80
2021,06,27,06,23,21.80
2021,06,27,06,24,21.80
2021,06,27,06,25,21.80
2021,06,27,06,26,21.80
2021,06,27,06,27,21.80
2021,06,27,06,28,21.80
2021,06,27,06,29,21.80
2021,06,27,06,30,21.80
2021,06,27,06,31,21.80
2021,06,27,06,32,21.80
2021,06,27,06,33,21.80
2021,06,27,06,34,21.80
2021,06,27,06,35,21.80
2021,06,27,06,36,21.80
2021,06,27,06,37,21.80
2021,06,27,06,38,21.80
2021,06,27,06,39,21.80
2021,06,27,06,40,21.80
2021,06,27,06,41,21.80
2021,06,27,06,42,21.80
2021,06,27,06,43,21.80
2021,06,27,06,44,21.80
2021,06,27,06,45,21.90
2021,06,27,06,46,21.90
2021,06,27,06,47,21.90
2021,06,27,06,48,21.90
2021,06,27,06,49,22.00
2021,06,27,06,50,22.00
2021,06,27,06,51,22.00
2021,06,27,06,52,22.10
2021,06,27,06,53,22.10
2021,06,27,06,54,22.10
2021,06,27,06,55,22.20
2021,06,27,06,56,22.20
2021,06,27,06,57,22.20
2021,06,27,06,58,22.30
2021,06,27,06,59,22.30
2021,06,27,07,00,22.40
2021,06,27,07,01,22.40
2021,06,27,07,02,22.40
2021,06,27,07,03,22.40
2021,06,27,07,04,22.50
2021,06,27,07,05,22.50
2021,06,27,07,06,22.60
2021,06,27,07,07,22.60
2021,06,27,07,08,22.70
2021,06,27,07,09,22.70
2021,06,27,07,10,22.70
2021,06,27,07,11,22.80
2021,06,27,07,12,22.80
2021,06,27,07,13,22.80
2021,06,27,07,14,22.80
2021,06,27,07,15,22.90
2021,06,27,07,16,22.90
2021,06,27,07,17,23.00
2021,06,27,07,18,23.10
2021,06,27,07,19,23.10
2021,06,27,07,20,23.10
2021,06,27,07,21,23.20
2021,06,27,07,22,23.20
2021,06,27,07,23,23.30
2021,06,27,07,24,23.30
2021,06,27,07,25,23.30
2021,06,27,07,26,23.40
2021,06,27,07,27,23.40
2021,06,27,07,28,23.40
2021,06,27,07,29,23.50
2021,06,27,07,30,23.60
2021,06,27,07,31,23.60
2021,06,27,07,32,23.60
2021,06,27,07,33,23.70
2021,06,27,07,34,23.70
2021,06,27,07,35,23.80
2021,06,27,07,36,23.80
2021,06,27,07,37,23.80
2021,06,27,07,38,23.90
2021,06,27,07,39,23.90
2021,06,27,07,40,24.00
2021,06,27,07,41,24.00
2021,06,27,07,42,24.10
2021,06,27,07,43,24.10
2021,06,27,07,44,24.10
2021,06,27,07,45,24.20
2021,06,27,07,46,24.20
2021,06,27,07,47,24.30
2021,06,27,07,48,24.30
2021,06,27,07,49,24.30
2021,06,27,07,50,24.30
2021,06,27,07,51,24.40
2021,06,27,07,52,24.40
2021,06,27,07,53,24.40
2021,06,27,07,54,24.50
2021,06,27,07,55,24.50
2021,06,27,07,56,24.60
2021,06,27,07,57,24.60
2021,06,27,07,58,24.60
2021,06,27,07,59,24.70
2021,06,27,08,00,24.70
2021,06,27,08,01,24.80
2021,06,27,08,02,24.80
2021,06,27,08,03,24.80
2021,06,27,08,04,24.90
2021,06,27,08,05,24.90
2021,06,27,08,06,24.90
2021,06,27,08,07,25.00
2021,06,27,08,08,25.10
2021,06,27,08,09,25.10
2021,06,27,08,10,25.10
2021,06,27,08,11,25.20
2021,06,27,08,12,25.20
2021,06,27,08,13,25.30
2021,06,27,08,14,25.40
2021,06,27,08,15,25.40
2021,06,27,08,16,25.50
2021,06,27,08,17,25.60
2021,06,27,08,18,25.70
2021,06,27,08,19,25.70
2021,06,27,08,20,25.80
2021,06,27,08,21,25.90
2021,06,27,08,22,25.90
2021,06,27,08,23,25.90
2021,06,27,08,24,26.00
2021,06,27,08,25,26.10
2021,06,27,08,26,26.10
2021,06,27,08,27,26.20
2021,06,27,08,28,26.20
2021,06,27,08,29,26.30
2021,06,27,08,30,26.30
2021,06,27,08,31,26.30
2021,06,27,08,32,26.40
2021,06,27,08,33,26.40
2021,06,27,08,34,26.50
2021,06,27,08,35,26.60
2021,06,27,08,36,26.60
2021,06,27,08,37,26.70
2021,06,27,08,38,26.70
2021,06,27,08,39,26.80
2021,06,27,08,40,26.80
2021,06,27,08,41,26.90
2021,06,27,08,42,27.00
2021,06,27,08,43,27.10
2021,06,27,08,44,27.20
2021,06,27,08,45,27.30
2021,06,27,08,46,27.40
2021,06,27,08,47,27.50
2021,06,27,08,48,27.60
2021,06,27,08,49,27.70
2021,06,27,08,50,27.80
2021,06,27,08,51,27.90
2021,06,27,08,52,28.00
2021,06,27,08,53,28.10
2021,06,27,08,54,28.20
2021,06,27,08,55,28.30
2021,06,27,08,56,28.40
2021,06,27,08,57,28.50
2021,06,27,08,58,28.60
2021,06,27,08,59,28.80
2021,06,27,09,00,28.90
2021,06,27,09,01,29.00
2021,06,27,09,02,29.10
2021,06,27,09,03,29.20
2021,06,27,09,04,29.30
2021,06,27,09,05,29.30
2021,06,27,09,06,29.40
2021,06,27,09,07,29.40
2021,06,27,09,08,29.50
2021,06,27,09,09,29.50
2021,06,27,09,10,29.50
2021,06,27,09,11,29.50
2021,06,27,09,12,29.60
2021,06,27,09,13,29.60
2021,06,27,09,14,29.60
2021,06,27,09,15,29.60
2021,06,27,09,16,29.70
2021,06,27,09,17,29.70
2021,06,27,09,18,29.70
2021,06,27,09,19,29.70
2021,06,27,09,20,29.80
2021,06,27,09,21,29.80
2021,06,27,09,22,29.90
2021,06,27,09,23,29.90
2021,06,27,09,24,30.00
2021,06,27,09,25,30.00
2021,06,27,09,26,30.10
2021,06,27,09,27,30.20
2021,06,27,09,28,30.20
2021,06,27,09,29,30.30
2021,06,27,09,30,30.30
2021,06,27,09,31,30.40
2021,06,27,09,32,30.50
2021,06,27,09,33,30.60
2021,06,27,09,34,30.70
2021,06,27,09,35,30.80
2021,06,27,09,36,30.90
2021,06,27,09,37,31.00
2021,06,27,09,38,31.00
2021,06,27,09,39,31.10
2021,06,27,09,40,31.20
2021,06,27,09,41,31.30
2021,06,27,09,42,31.40
2021,06,27,09,43,31.50
2021,06,27,09,44,31.60
2021,06,27,09,45,31.70
2021,06,27,09,46,31.70
2021,06,27,09,47,31.80
2021,06,27,09,48,31.80
2021,06,27,09,49,31.90
2021,06,27,09,50,31.90
2021,06,27,09,51,31.90
2021,06,27,09,52,32.00
2021,06,27,09,53,32.00
2021,06,27,09,54,32.10
2021,06,27,09,55,32.10
2021,06,27,09,56,32.20
2021,06,27,09,57,32.30
2021,06,27,09,58,32.40
2021,06,27,09,59,32.50
2021,06,27,10,00,32.70
2021,06,27,10,01,32.80
2021,06,27,10,02,32.90
2021,06,27,10,03,33.00
2021,06,27,10,04,33.10
2021,06,27,10,05,33.20
2021,06,27,10,06,33.30
2021,06,27,10,07,33.40
2021,06,27,10,08,33.50
2021,06,27,10,09,33.60
2021,06,27,10,10,33.70
2021,06,27,10,11,33.80
2021,06,27,10,12,33.80
2021,06,27,10,13,33.90
2021,06,27,10,14,33.90
2021,06,27,10,15,34.00
2021,06,27,10,16,34.10
2021,06,27,10,17,34.10
2021,06,27,10,18,34.20
2021,06,27,10,19,34.20
2021,06,27,10,20,34.20
2021,06,27,10,21,34.20
2021,06,27,10,22,34.20
2021,06,27,10,23,34.20
2021,06,27,10,24,34.30
2021,06,27,10,25,34.30
2021,06,27,10,26,34.40
2021,06,27,10,27,34.40
2021,06,27,10,28,34.40
2021,06,27,10,29,34.40
2021,06,27,10,30,34.40
2021,06,27,10,31,34.40
2021,06,27,10,32,34.50
2021,06,27,10,33,34.60
2021,06,27,10,34,34.60
2021,06,27,10,35,34.70
2021,06,27,10,36,34.70
2021,06,27,10,37,34.70
2021,06,27,10,38,34.80
2021,06,27,10,39,34.80
2021,06,27,10,40,34.80
2021,06,27,10,41,34.80
2021,06,27,10,42,34.90
2021,06,27,10,43,34.90
2021,06,27,10,44,35.00
2021,06,27,10,45,35.00
2021,06,27,10,46,35.10
2021,06,27,10,47,35.10
2021,06,27,10,48,35.00
2021,06,27,10,49,35.00
2021,06,27,10,50,34.90
2021,06,27,10,51,34.90
2021,06,27,10,52,34.80
2021,06,27,10,53,34.90
2021,06,27,10,54,34.90
2021,06,27,10,55,34.90
2021,06,27,10,56,35.00
2021,06,27,10,57,35.10
2021,06,27,10,58,35.10
2021,06,27,10,59,35.20
2021,06,27,11,00,35.30
2021,06,27,11,01,35.30
2021,06,27,11,02,35.30
2021,06,27,11,03,35.40
2021,06,27,11,04,35.40
2021,06,27,11,05,35.40
2021,06,27,11,06,35.40
2021,06,27,11,07,35.40
2021,06,27,11,08,35.50
2021,06,27,11,09,35.50
2021,06,27,11,10,35.60
2021,06,27,11,11,35.60
2021,06,27,11,12,35.60
2021,06,27,11,13,35.70
2021,06,27,11,14,35.80
2021,06,27,11,15,35.80
2021,06,27,11,16,35.80
2021,06,27,11,17,35.80
2021,06,27,11,18,35.80
2021,06,27,11,19,35.80
2021,06,27,11,20,35.80
2021,06,27,11,21,35.70
2021,06,27,11,22,35.60
2021,06,27,11,23,35.60
2021,06,27,11,24,35.50
2021,06,27,11,25,35.50
2021,06,27,11,26,35.50
2021,06,27,11,27,35.50
2021,06,27,11,28,35.60
2021,06,27,11,29,35.60
2021,06,27,11,30,35.70
2021,06,27,11,31,35.80
2021,06,27,11,32,35.80
2021,06,27,11,33,35.80
2021,06,27,11,34,35.90
2021,06,27,11,35,35.90
2021,06,27,11,36,35.90
2021,06,27,11,37,35.90
2021,06,27,11,38,35.90
2021,06,27,11,39,36.00
2021,06,27,11,40,36.10
2021,06,27,11,41,36.20
2021,06,27,11,42,36.30
2021,06,27,11,43,36.40
2021,06,27,11,44,36.50
2021,06,27,11,45,36.70
2021,06,27,11,46,36.80
2021,06,27,11,47,36.90
2021,06,27,11,48,37.00
2021,06,27,11,49,37.10
2021,06,27,11,50,37.20
2021,06,27,11,51,37.20
2021,06,27,11,52,37.20
2021,06,27,11,53,37.10
2021,06,27,11,54,37.00
2021,06,27,11,55,36.90
2021,06,27,11,56,36.80
2021,06,27,11,57,36.70
2021,06,27,11,58,36.60
2021,06,27,11,59,36.60
2021,06,27,12,00,36.60
2021,06,27,12,01,36.60
2021,06,27,12,02,36.50
2021,06,27,12,03,36.50
2021,06,27,12,04,36.40
2021,06,27,12,05,36.40
2021,06,27,12,06,36.40
2021,06,27,12,07,36.40
2021,06,27,12,08,36.50
2021,06,27,12,09,36.60
2021,06,27,12,10,36.70
2021,06,27,12,11,36.80
2021,06,27,12,12,36.90
2021,06,27,12,13,37.00
2021,06,27,12,14,37.10
2021,06,27,12,15,37.10
2021,06,27,12,16,37.20
2021,06,27,12,17,37.20
2021,06,27,12,18,37.30
2021,06,27,12,19,37.30
2021,06,27,12,20,37.30
2021,06,27,12,21,37.40
2021,06,27,12,22,37.40
2021,06,27,12,23,37.40
2021,06,27,12,24,37.40
2021,06,27,12,25,37.50
2021,06,27,12,26,37.50
2021,06,27,12,27,37.60
2021,06,27,12,28,37.60
2021,06,27,12,29,37.60
2021,06,27,12,30,37.60
2021,06,27,12,31,37.60
2021,06,27,12,32,37.60
2021,06,27,12,33,37.60
2021,06,27,12,34,37.60
2021,06,27,12,35,37.50
2021,06,27,12,36,37.40
2021,06,27,12,37,37.40
2021,06,27,12,38,37.40
2021,06,27,12,39,37.40
2021,06,27,12,40,37.40
2021,06,27,12,41,37.50
2021,06,27,12,42,37.50
2021,06,27,12,43,37.60
2021,06,27,12,44,37.60
2021,06,27,12,45,37.60
2021,06,27,12,46,37.60
2021,06,27,12,47,37.60
2021,06,27,12,48,37.60
2021,06,27,12,49,37.60
2021,06,27,12,50,37.60
2021,06,27,12,51,37.60
2021,06,27,12,52,37.60
2021,06,27,12,53,37.60
2021,06,27,12,54,37.70
2021,06,27,12,55,37.70
2021,06,27,12,56,37.70
2021,06,27,12,57,37.70
2021,06,27,12,58,37.70
2021,06,27,12,59,37.70
2021,06,27,13,00,37.80
2021,06,27,13,01,37.80
2021,06,27,13,02,37.90
2021,06,27,13,03,37.90
2021,06,27,13,04,37.90
2021,06,27,13,05,38.00
2021,06,27,13,06,38.00
2021,06,27,13,07,38.10
2021,06,27,13,08,38.20
2021,06,27,13,09,38.20
2021,06,27,13,10,38.30
2021,06,27,13,11,38.40
2021,06,27,13,12,38.50
2021,06,27,13,13,38.50
2021,06,27,13,14,38.60
2021,06,27,13,15,38.60
2021,06,27,13,16,38.70
2021,06,27,13,17,38.70
2021,06,27,13,18,38.80
2021,06,27,13,19,38.80
2021,06,27,13,20,38.70
2021,06,27,13,21,38.70
2021,06,27,13,22,38.70
2021,06,27,13,23,38.70
2021,06,27,13,24,38.80
2021,06,27,13,25,38.80
2021,06,27,13,26,38.70
2021,06,27,13,27,38.70
2021,06,27,13,28,38.60
2021,06,27,13,29,38.50
2021,06,27,13,30,38.40
2021,06,27,13,31,38.30
2021,06,27,13,32,38.20
2021,06,27,13,33,38.10
2021,06,27,13,34,38.10
2021,06,27,13,35,38.10
2021,06,27,13,36,38.20
2021,06,27,13,37,38.20
2021,06,27,13,38,38.20
2021,06,27,13,39,38.20
2021,06,27,13,40,38.30
2021,06,27,13,41,38.30
2021,06,27,13,42,38.30
2021,06,27,13,43,38.40
2021,06,27,13,44,38.50
2021,06,27,13,45,38.50
2021,06,27,13,46,38.60
2021,06,27,13,47,38.60
2021,06,27,13,48,38.60
2021,06,27,13,49,38.70
2021,06,27,13,50,38.70
2021,06,27,13,51,38.60
2021,06,27,13,52,38.50
2021,06,27,13,53,38.40
2021,06,27,13,54,38.30
2021,06,27,13,55,38.30
2021,06,27,13,56,38.20
2021,06,27,13,57,38.20
2021,06,27,13,58,38.30
2021,06,27,13,59,38.30
2021,06,27,14,00,38.30
2021,06,27,14,01,38.20
2021,06,27,14,02,38.20
2021,06,27,14,03,38.10
2021,06,27,14,04,38.00
2021,06,27,14,05,38.00
2021,06,27,14,06,37.90
2021,06,27,14,07,37.80
2021,06,27,14,08,37.70
2021,06,27,14,09,37.60
2021,06,27,14,10,37.60
2021,06,27,14,11,37.50
2021,06,27,14,12,37.40
2021,06,27,14,13,37.40
2021,06,27,14,14,37.40
2021,06,27,14,15,37.50
2021,06,27,14,16,37.50
2021,06,27,14,17,37.60
2021,06,27,14,18,37.60
2021,06,27,14,19,37.60
2021,06,27,14,20,37.70
2021,06,27,14,21,37.70
2021,06,27,14,22,37.80
2021,06,27,14,23,37.80
2021,06,27,14,24,37.80
2021,06,27,14,25,37.80
2021,06,27,14,26,37.80
2021,06,27,14,27,37.70
2021,06,27,14,28,37.70
2021,06,27,14,29,37.70
2021,06,27,14,30,37.70
2021,06,27,14,31,37.70
2021,06,27,14,32,37.70
2021,06,27,14,33,37.70
2021,06,27,14,34,37.70
2021,06,27,14,35,37.70
2021,06,27,14,36,37.80
2021,06,27,14,37,37.80
2021,06,27,14,38,37.90
2021,06,27,14,39,37.90
2021,06,27,14,40,37.90
2021,06,27,14,41,37.90
2021,06,27,14,42,37.90
2021,06,27,14,43,37.90
2021,06,27,14,44,38.00
2021,06,27,14,45,38.00
2021,06,27,14,46,38.00
2021,06,27,14,47,38.00
2021,06,27,14,48,38.00
2021,06,27,14,49,38.00
2021,06,27,14,50,38.10
2021,06,27,14,51,38.10
2021,06,27,14,52,38.10
2021,06,27,14,53,38.10
2021,06,27,14,54,38.10
2021,06,27,14,55,38.00
2021,06,27,14,56,38.00
2021,06,27,14,57,37.90
2021,06,27,14,58,38.00
2021,06,27,14,59,38.00
2021,06,27,15,00,38.00
2021,06,27,15,01,38.00
2021,06,27,15,02,37.90
2021,06,27,15,03,37.90
2021,06,27,15,04,37.90
2021,06,27,15,05,37.90
2021,06,27,15,06,37.90
2021,06,27,15,07,38.00
2021,06,27,15,08,38.10
2021,06,27,15,09,38.20
2021,06,27,15,10,38.20
2021,06,27,15,11,38.30
2021,06,27,15,12,38.30
2021,06,27,15,13,38.40
2021,06,27,15,14,38.40
2021,06,27,15,15,38.50
2021,06,27,15,16,38.60
2021,06,27,15,17,38.60
2021,06,27,15,18,38.60
2021,06,27,15,19,38.60
2021,06,27,15,20,38.60
2021,06,27,15,21,38.60
2021,06,27,15,22,38.50
2021,06,27,15,23,38.40
2021,06,27,15,24,38.40
2021,06,27,15,25,38.40
2021,06,27,15,26,38.40
2021,06,27,15,27,38.50
2021,06,27,15,28,38.60
2021,06,27,15,29,38.60
2021,06,27,15,30,38.70
2021,06,27,15,31,38.80
2021,06,27,15,32,38.80
2021,06,27,15,33,38.90
2021,06,27,15,34,38.90
2021,06,27,15,35,38.90
2021,06,27,15,36,38.90
2021,06,27,15,37,39.00
2021,06,27,15,38,39.00
2021,06,27,15,39,39.00
2021,06,27,15,40,39.10
2021,06,27,15,41,39.10
2021,06,27,15,42,39.10
2021,06,27,15,43,39.20
2021,06,27,15,44,39.20
2021,06,27,15,45,39.20
2021,06,27,15,46,39.20
2021,06,27,15,47,39.20
2021,06,27,15,48,39.20
2021,06,27,15,49,39.20
2021,06,27,15,50,39.20
2021,06,27,15,51,39.10
2021,06,27,15,52,39.10
2021,06,27,15,53,39.10
2021,06,27,15,54,39.10
2021,06,27,15,55,39.10
2021,06,27,15,56,39.10
2021,06,27,15,57,39.10
2021,06,27,15,58,39.10
2021,06,27,15,59,39.10
2021,06,27,16,00,39.10
2021,06,27,16,01,39.10
2021,06,27,16,02,39.10
2021,06,27,16,03,39.10
2021,06,27,16,04,39.10
2021,06,27,16,05,39.10
2021,06,27,16,06,39.10
2021,06,27,16,07,39.20
2021,06,27,16,08,39.20
2021,06,27,16,09,39.20
2021,06,27,16,10,39.20
2021,06,27,16,11,39.20
2021,06,27,16,12,39.20
2021,06,27,16,13,39.20
2021,06,27,16,14,39.30
2021,06,27,16,15,39.30
2021,06,27,16,16,39.30
2021,06,27,16,17,39.40
2021,06,27,16,18,39.40
2021,06,27,16,19,39.40
2021,06,27,16,20,39.40
2021,06,27,16,21,39.40
2021,06,27,16,22,39.40
2021,06,27,16,23,39.40
2021,06,27,16,24,39.40
2021,06,27,16,25,39.30
2021,06,27,16,26,39.30
2021,06,27,16,27,39.30
2021,06,27,16,28,39.30
2021,06,27,16,29,39.20
2021,06,27,16,30,39.20
2021,06,27,16,31,39.30
2021,06,27,16,32,39.30
2021,06,27,16,33,39.40
2021,06,27,16,34,39.50
2021,06,27,16,35,39.50
2021,06,27,16,36,39.60
2021,06,27,16,37,39.60
2021,06,27,16,38,39.60
2021,06,27,16,39,39.60
2021,06,27,16,40,39.60
2021,06,27,16,41,39.60
2021,06,27,16,42,39.60
2021,06,27,16,43,39.60
2021,06,27,16,44,39.60
2021,06,27,16,45,39.60
2021,06,27,16,46,39.60
2021,06,27,16,47,39.60
2021,06,27,16,48,39.60
2021,06,27,16,49,39.60
2021,06,27,16,50,39.60
2021,06,27,16,51,39.60
2021,06,27,16,52,39.60
2021,06,27,16,53,39.60
2021,06,27,16,54,39.50
2021,06,27,16,55,39.50
2021,06,27,16,56,39.40
2021,06,27,16,57,39.40
2021,06,27,16,58,39.40
2021,06,27,16,59,39.30
2021,06,27,17,00,39.30
2021,06,27,17,01,39.30
2021,06,27,17,02,39.40
2021,06,27,17,03,39.40
2021,06,27,17,04,39.40
2021,06,27,17,05,39.40
2021,06,27,17,06,39.40
2021,06,27,17,07,39.30
2021,06,27,17,08,39.30
2021,06,27,17,09,39.20
2021,06,27,17,10,39.20
2021,06,27,17,11,39.20
2021,06,27,17,12,39.20
2021,06,27,17,13,39.20
2021,06,27,17,14,39.20
2021,06,27,17,15,39.10
2021,06,27,17,16,39.10
2021,06,27,17,17,39.10
2021,06,27,17,18,39.10
2021,06,27,17,19,39.10